Wind_Speed
26 26 24 22 19 16 9 9 6 12 5 14 12 13 8 6 6 7 7 2 4 7 8 6 7 11 12 11 11 12 13 13 6 12 7 4 3 7 15 20 17 15 15
27 28 24 23 21 19 17 13 15 10 7 8 11 9 6 5 6 7 6 3 4 7 9 10 11 10 11 12 12 13 13 14 12 14 16 7 9 8 12 13 14 11 15
28 25 25 26 23 21 22 16 18 17 14 13 11 8 6 5 5 6 6 5 3 5 5 6 8 8 10 10 10 10 12 11 11 8 10 6 8 10 13 15 14 15 17
26 25 25 25 24 23 22 20 15 15 14 14 12 10 7 7 9 8 5 4 4 3 1 4 5 7 6 7 8 9 12 9 11 11 10 12 8 11 12 8 9 12 10
27 27 24 28 24 23 21 21 20 18 16 15 14 11 11 11 10 8 6 4 1 3 5 6 6 4 8 11 11 12 12 9 10 11 12 17 5 4 7 7 9 8 10
27 28 23 28 25 22 21 20 18 17 15 16 16 15 12 12 9 12 9 4 2 3 5 11 8 9 5 6 8 8 10 11 12 10 11 7 9 10 5 5 8 10 4
24 25 23 27 25 22 20 19 18 17 15 15 15 14 12 10 12 12 8 4 3 5 7 7 7 7 6 5 5 8 11 10 9 9 12 13 12 12 12 11 8 10 14
23 27 27 27 24 22 20 20 20 20 16 16 16 15 13 12 11 9 6 5 3 4 1 2 3 5 10 10 10 8 10 9 9 8 7 10 11 14 12 11 13 13 12
29 28 28 28 25 23 21 21 20 19 17 17 15 14 14 13 12 10 8 7 6 6 4 4 2 3 8 12 11 10 9 8 4 6 9 10 12 10 10 11 13 11 10
32 32 30 29 26 25 24 23 23 20 17 13 13 14 11 14 13 12 6 3 3 1 9 3 1 7 13 12 6 7 7 6 7 8 10 13 16 14 11 11 10 12 11
28 27 27 28 26 25 25 25 24 23 20 17 17 15 9 11 12 8 4 1 3 3 4 5 4 10 9 7 7 8 8 10 10 8 12 12 10 5 4 6 10 13 14
26 25 27 27 25 25 25 23 24 23 21 22 23 17 9 9 10 9 7 2 2 4 3 2 5 6 6 6 8 9 6 9 6 6 7 11 15 15 15 14 13 12 11
26 26 26 26 26 26 25 24 23 23 24 24 21 18 13 11 12 10 6 3 2 4 1 4 6 6 5 0 7 9 6 8 11 9 10 12 13 14 11 15 16 14 12
26 26 27 28 25 26 23 24 23 25 24 21 22 20 21 16 13 12 9 4 1 2 0 3 3 3 6 5 4 8 9 9 9 9 10 11 11 13 13 13 15 17 16
25 27 28 28 28 28 23 23 21 25 24 23 24 24 27 23 21 18 14 10 6 7 6 8 5 2 2 1 2 5 6 7 8 10 9 10 11 11 13 15 14 13 14
23 25 26 25 26 24 24 17 17 27 25 27 28 28 27 22 25 18 12 9 7 7 8 7 6 2 0 2 2 3 5 7 8 7 6 7 9 12 14 13 13 13 14
21 22 24 26 24 24 26 25 27 22 19 17 18 19 23 24 21 14 10 10 12 12 6 5 4 2 1 1 1 1 3 2 6 6 8 8 8 10 11 13 15 14 15
20 23 26 28 29 26 25 19 23 17 17 20 21 21 18 19 16 14 14 16 14 9 5 7 6 4 3 2 1 1 2 1 3 5 6 7 8 9 10 10 12 12 13
15 13 21 24 29 29 32 26 24 20 18 17 22 21 20 19 18 17 19 13 12 12 9 7 6 7 5 4 2 2 2 3 3 6 6 8 9 11 11 12 12 13 13
17 14 21 23 18 15 20 20 20 18 18 17 18 19 23 23 19 17 14 11 7 8 7 7 6 3 3 2 2 4 1 3 4 6 7 9 10 10 9 10 11 12 13
15 19 19 10 13 9 9 5 11 17 18 18 18 22 26 22 19 18 16 14 10 9 9 6 8 4 5 5 2 1 3 3 2 4 5 7 8 9 10 10 11 13 14
16 13 19 18 19 17 24 26 29 23 22 21 19 24 24 20 17 19 17 14 11 8 11 9 7 7 6 4 4 4 4 2 2 4 6 7 7 8 10 12 13 12 14
17 21 19 23 22 26 26 25 24 26 22 22 25 31 26 19 12 16 14 12 11 10 8 9 8 7 7 4 3 4 5 2 2 5 6 6 8 9 9 11 12 13 12
20 21 21 22 23 24 25 25 23 22 20 22 27 26 21 17 14 15 14 14 13 11 10 9 8 7 9 7 8 9 9 6 3 7 7 5 8 8 9 10 12 13 15
22 24 23 22 20 21 21 21 18 20 18 21 23 22 22 20 15 19 18 16 15 14 13 11 10 8 8 9 9 8 5 5 5 6 5 7 5 7 10 12 13 15 16
23 21 26 25 21 21 15 12 15 18 21 21 22 23 21 18 18 20 20 19 18 16 15 14 12 11 12 10 15 9 5 7 6 5 6 5 5 8 10 12 14 16 16
Wind_Direction
195 191 197 196 200 213 229 158 184 155 145 171 191 227 221 211 211 227 245 239 232 253 272 289 262 267 278 289 300 297 307 317 328 316 18 111 155 239 234 219 225 233 243
196 190 192 192 196 188 209 200 178 193 189 183 205 208 212 206 214 232 250 280 258 264 275 280 277 281 275 283 287 298 294 295 298 295 291 283 250 229 227 232 226 237 251
196 188 190 189 194 193 191 206 200 189 188 194 196 196 194 215 226 232 251 267 270 264 273 290 301 295 283 289 294 290 297 299 296 308 295 292 241 238 226 233 225 231 239
191 191 192 190 196 197 189 190 205 190 194 196 202 199 204 210 219 236 244 234 236 268 279 321 296 292 311 308 316 311 307 314 304 293 276 267 288 256 223 252 243 243 253
188 195 196 187 194 199 193 189 194 193 196 203 202 198 201 214 212 199 184 177 123 353 332 327 3 319 292 299 296 289 303 318 306 305 310 290 310 25 239 258 279 274 261
182 191 202 187 190 198 199 191 192 200 205 203 202 189 194 205 179 171 164 151 60 7 339 322 306 349 299 304 312 304 317 309 287 304 318 317 321 326 349 305 287 295 287
177 185 182 184 189 195 199 191 189 196 199 216 201 190 190 185 166 174 165 119 76 34 21 9 17 357 326 323 321 308 294 291 298 293 285 296 305 322 323 310 293 287 273
176 187 186 180 185 190 192 190 192 204 197 200 193 173 189 164 162 162 153 159 152 126 166 47 42 10 353 353 341 330 314 286 280 289 293 304 302 297 296 296 298 291 285
184 185 183 180 184 184 187 184 184 197 193 194 185 166 167 160 170 168 179 187 199 193 177 165 127 321 350 340 333 336 328 332 296 267 275 293 307 303 299 286 274 275 274
187 187 181 180 181 181 181 182 181 186 185 182 175 170 180 173 171 182 206 338 170 350 198 217 57 352 344 341 342 344 327 330 315 302 299 292 292 280 274 268 280 265 276
188 184 178 180 180 183 182 178 175 173 175 170 159 152 157 170 181 182 175 179 73 30 71 134 349 346 354 16 19 349 337 313 310 304 300 309 351 21 353 320 290 269 275
185 183 182 183 183 183 179 171 170 172 170 159 140 134 160 183 171 166 175 185 90 67 56 34 356 37 34 45 15 359 344 331 344 315 332 10 15 12 353 339 324 319 299
180 180 179 182 186 180 173 170 169 172 161 153 150 155 153 178 175 168 173 148 106 142 214 49 68 59 23 202 20 19 8 4 7 18 13 359 350 341 331 348 356 347 340
179 177 178 180 179 169 175 175 174 172 172 167 166 172 162 174 182 174 172 158 95 145 349 106 101 118 71 74 52 30 26 22 18 9 359 355 353 358 358 355 352 350 347
180 178 178 177 170 170 169 182 185 182 178 182 185 180 165 173 176 178 174 174 178 201 200 207 195 180 172 91 60 40 31 23 20 9 10 6 7 7 360 358 1 352 353
183 178 180 175 163 160 158 144 168 186 193 195 199 189 173 179 174 182 187 196 201 189 184 200 170 157 352 46 32 28 37 21 8 358 10 14 16 9 3 5 3 6 356
191 187 184 173 160 155 151 145 127 118 155 165 162 170 174 162 163 167 172 170 164 171 181 159 146 159 121 32 55 356 32 39 9 349 346 357 8 10 7 5 357 4 356
206 202 190 180 163 158 155 164 151 145 132 127 138 148 161 158 157 160 157 153 158 186 202 158 168 172 152 197 274 311 321 15 355 342 332 340 356 359 352 0 353 357 348
207 213 201 191 180 163 163 166 165 163 151 145 146 148 152 152 157 161 164 167 183 173 168 178 184 178 178 205 206 259 314 327 352 336 353 350 356 357 0 3 352 353 345
218 207 168 150 150 129 155 164 162 164 158 165 170 169 164 157 162 170 180 182 175 170 167 169 164 166 166 217 231 264 316 1 343 342 2 346 353 348 350 340 345 337 335
193 178 168 181 185 169 160 197 184 169 179 176 177 179 179 164 171 176 180 189 180 163 165 182 168 188 215 214 249 329 301 295 302 348 347 335 342 340 339 345 337 337 338
185 200 199 211 216 202 188 192 205 202 183 177 183 179 185 178 189 172 176 173 171 168 172 178 170 194 212 196 217 223 246 248 23 336 328 324 323 331 349 337 334 338 332
184 204 204 196 215 212 193 193 196 197 187 175 165 172 180 192 202 164 166 162 177 178 176 171 177 202 194 190 214 232 234 187 258 319 298 313 323 335 335 324 321 321 335
198 187 193 200 192 186 193 202 200 192 184 178 157 165 183 191 194 168 165 172 170 175 178 183 181 200 192 174 212 204 221 259 259 265 295 313 308 315 322 316 319 331 332
202 192 199 204 209 204 192 192 196 182 193 185 165 163 175 185 184 161 167 176 175 180 179 185 198 197 187 188 202 212 239 277 290 294 301 296 308 324 322 325 329 324 323
212 206 191 203 216 187 191 200 223 202 196 190 172 166 172 186 175 171 173 177 179 184 184 184 187 196 197 198 220 220 290 303 296 306 320 323 344 320 323 324 325 326 315
Height
783 788 793 798 802 805 806 812 813 819 820 812 817 823 825 823 824 827 830 830 831 829 828 826 827 830 828 829 829 829 829 830 831 830 832 833 833 834 837 839 840 836 835
780 783 790 793 798 804 805 807 809 811 812 813 817 822 821 820 822 826 829 828 829 828 827 825 826 827 828 828 828 828 828 829 831 830 830 831 831 831 833 833 833 834 832
775 781 785 788 793 798 803 805 807 809 813 815 817 818 817 820 822 827 828 826 826 827 825 825 826 825 825 826 826 826 826 827 828 829 828 827 827 828 828 829 828 828 830
772 777 781 786 790 793 798 802 804 807 810 814 815 816 816 819 824 825 824 826 827 826 824 825 826 826 824 824 824 824 824 823 824 825 825 824 825 826 827 828 828 828 827
767 773 777 781 787 791 794 798 803 807 808 811 814 815 818 822 820 821 824 827 827 825 824 825 825 825 824 823 823 823 823 822 822 822 821 821 823 824 825 826 825 825 824
763 770 774 779 784 789 793 797 802 804 809 812 814 814 816 816 817 821 823 825 823 824 823 823 823 823 822 821 821 821 821 821 822 822 821 820 820 822 822 822 822 822 822
761 767 771 775 779 785 791 797 799 802 804 810 810 810 813 816 818 820 821 822 822 823 824 824 824 823 822 821 821 819 819 819 819 819 819 820 819 819 818 818 819 819 818
757 761 765 769 775 781 787 793 795 798 801 808 808 809 812 814 817 818 820 822 821 823 823 823 822 822 821 821 820 819 818 817 817 817 817 817 817 817 817 816 816 815 814
750 755 760 765 770 776 782 787 791 797 800 805 807 807 809 813 816 818 820 822 822 822 822 822 822 821 821 821 820 819 819 817 816 816 816 815 814 812 812 811 811 812 811
741 748 754 761 767 772 776 782 786 792 796 801 805 809 808 811 815 818 819 821 821 821 821 821 821 822 821 819 818 817 816 814 814 815 814 813 811 810 809 808 808 809 808
742 748 754 759 764 769 773 777 781 786 792 798 804 807 809 814 816 818 819 820 820 820 821 822 822 822 821 821 820 818 817 815 814 813 813 812 811 809 809 808 807 807 806
742 747 752 757 763 767 771 776 780 786 791 796 797 804 809 812 815 817 819 819 820 821 822 822 822 821 822 822 821 819 818 816 813 811 810 809 808 808 809 808 806 804 803
739 744 750 756 760 764 769 773 777 783 787 790 794 799 806 810 813 815 817 818 819 820 821 822 823 822 821 822 822 822 820 818 816 814 812 811 809 807 806 804 804 802 800
736 741 747 752 757 762 768 773 776 780 785 787 789 795 800 806 810 812 815 817 818 819 820 822 822 822 822 822 822 822 823 821 820 819 818 816 814 811 808 806 804 802 799
734 737 742 747 751 758 763 770 775 777 780 785 786 788 793 798 803 808 810 813 814 816 818 820 821 821 823 823 823 823 822 821 821 821 819 817 814 812 810 809 807 805 802
732 736 739 744 749 753 758 765 767 772 777 780 783 783 786 791 797 803 807 809 811 814 817 818 820 821 822 823 823 824 824 824 824 823 820 817 814 813 812 810 808 806 804
731 734 737 741 745 748 753 760 765 772 775 778 780 783 786 789 795 801 805 807 809 813 815 816 817 821 824 825 825 825 823 822 823 825 824 819 815 812 811 810 810 808 806
729 730 731 736 739 746 753 764 765 770 772 776 781 783 787 790 795 799 802 806 808 811 813 815 818 820 821 824 824 825 825 823 821 821 822 819 814 810 809 808 808 808 806
727 728 730 732 737 743 747 756 762 767 773 775 778 783 787 789 794 798 802 804 804 807 810 814 815 817 821 822 823 824 823 823 822 820 820 820 816 811 809 808 807 805 803
726 729 730 732 736 738 744 753 756 765 769 774 777 779 784 787 792 795 800 802 802 804 809 811 815 818 820 822 823 824 822 821 821 820 818 819 816 812 809 808 805 803 802
726 728 732 737 736 739 745 751 761 762 768 773 772 778 779 784 788 791 794 798 799 801 805 810 813 819 822 823 823 823 824 823 821 819 817 816 814 810 809 808 806 804 801
724 727 726 732 737 744 746 750 760 761 762 770 771 772 777 782 784 785 790 795 797 801 805 808 810 813 817 818 821 821 822 821 820 820 819 817 813 810 807 808 806 803 802
723 726 729 729 734 740 745 748 752 755 755 759 763 768 774 777 781 783 787 792 798 801 804 807 809 813 816 818 819 820 820 818 819 821 818 816 815 811 806 805 804 802 799
719 721 725 727 729 733 737 741 742 745 748 753 758 764 770 775 777 779 784 790 795 800 803 807 806 811 813 816 816 816 817 819 819 818 816 814 811 809 805 803 801 800 800
714 715 718 720 722 725 729 732 734 738 742 747 751 757 764 769 770 773 780 787 792 796 798 802 805 809 812 813 811 813 815 815 815 815 813 811 808 806 804 804 802 800 797
707 707 709 713 716 718 722 728 733 736 740 744 747 752 757 762 765 769 778 783 788 792 794 797 801 808 810 812 810 811 812 812 812 811 810 809 807 805 804 802 800 798 794